DECAYED

IRIDIUM 33 DEB, 34775 (Decayed)

Orbit data source: Space-Track

IRIDIUM 33 DEB, 34775 was space debris in LEO originally from a launch on Sun, 14 Sep 1997 UTC launched from the Tyuratam Missile And Space Complex (TTMTR). The debris from Iridium 33, an American commercial communications satellite, has been tracked extensively since its accidental collision with the defunct Russian satellite Cosmos 2251 in 2009. This event, occurring at high speed in low Earth orbit (LEO), generated thousands of pieces of space debris, significantly increasing the risk of further collisions. The Iridium 33 debris cloud has impacted space traffic management and orbital debris mitigation strategies, making it a subject of ongoing study in space situational awareness.

Loading next visibility...
Identifier
34775, 1997-051LU
Orbit
Decayed
Country
Flag of USUS
Related business
Manufacturer
Unknown
Mission
Decayed spacecraft
Bus & Motor
Unknown
Mass
Unknown
Launch date (UTC)
1997-09-14 (29 years ago)
Launch vehicle
Unknown
Launch site
Tyuratam Missile And Space Complex (TTMTR)
Object type
Payload
Rocket body
Debris
Shape & HBR
Unknown shape, 0.1 m
Radar Cross Section
Small (<0.1 m²)

Expand to show TLE details & history
Last TLE update: 7 months ago

TLE from 7 months ago
0 IRIDIUM 33 DEB
1 34775U 97051LU  25327.61786351  .05396876  41209-1  15293-1 0  9996
2 34775  86.3008  26.2696 0011489 289.6328  70.3716 15.97254329880989
Epoch: 2025-11-23T14:49Z
TLE epoch observation values (Epoch: 2025-11-23T14:49:43.407Z)
Latitude
-0.00004°
Longitude
101.00913°
Altitude
282.754 km
Speed
7.739 km/s
True Right ascension
01h 45m 04s
True Declination
0° 00' 00"
Sunlit
Object was in full shadow at epoch
Visualization orbit readout
Latitude
Unknown
Longitude
Unknown
Altitude
Unknown
Speed
Unknown
Apparent Right ascension
Unknown
Apparent Declination
Unknown
Sunlit
N/A
Visualization observer readout
Local Sidereal Time
19:26:18
Azimuth
Unknown
Elevation
Unknown
Doppler factor
Unknown
Orbital elements
Apogee altitude
286.429 km
Perigee altitude
271.132 km
Semi-major axis
6,656.918 km
Eccentricity
0.00115
Inclination
86.3008°
RAAN
26.2696°
Arg. of periapsis
289.6328°
True anomaly
70.49566°
Mean anomaly
70.3716°
Eccentric anomaly
70.43363°
Mean motion
3.99607 °/min
Orbital period
90.09 mins
BSTAR
0.015293

Documentation

Showing up to 5 results
|